Weather History for PHMK - February, 2014

Change the Weather History Date:

Wednesday, February 26, 2014

  Actual Average Record
Temperature  
Mean Temperature 70 °F -  
Max Temperature 75 °F 76 °F 82 °F (1977)
Min Temperature 64 °F 63 °F 52 °F (1987)
Cooling Degree Days 4    
Growing Degree Days 20 (Base 50)    
Moisture  
Dew Point 61 °F    
Average Humidity 76    
Maximum Humidity 94    
Minimum Humidity 55    
Precipitation  
Precipitation 0.02 in - - ()
Sea Level Pressure  
Sea Level Pressure 30.01 in    
Wind  
Wind Speed 10 mph (NNW)    
Max Wind Speed 17 mph    
Max Gust Speed 28 mph    
Visibility 10 miles    
Events      
Averages and records for this station are not official NWS values.
T = Trace of Precipitation, MM = Missing Value Source: NWS Daily Summary

Daily Weather History Graph

Daily Weather History Graph

Search for Another Location

Airport or City:

Trip Planner

Search our weather history database for the weather conditions in past years. The results will help you decide how hot, cold, wet, or windy it might be!

Date:

Astronomy

Feb. 26, 2014 Rise Set
Actual Time 6:50 AM HST 6:31 PM HST
Civil Twilight 6:28 AM HST 6:54 PM HST
Nautical Twilight 6:02 AM HST 7:19 PM HST
Astronomical Twilight 5:37 AM HST 7:45 PM HST
Moon 4:31 AM HST (2/26) 4:11 PM HST (2/26)
Length of Visible Light 12h 25m
Length of Day
11h 40m
Waning Crescent, 8% of the Moon is Illuminated
Feb 26
Waning Crescent
Feb 28
New
Mar 8
First Quarter
Mar 16
Full
Mar 23
Last Quarter

Hourly Weather History & Observations

Time (HST) Temp. Dew Point Humidity Pressure Visibility Wind Dir Wind Speed Gust Speed Precip Events Conditions
12:54 AM 68.0 °F 63.0 °F 84% 29.99 in 10.0 mi NNW 8.1 mph - N/A   Overcast
1:54 AM 66.9 °F 63.0 °F 87% 29.97 in 10.0 mi NNW 6.9 mph - N/A   Overcast
2:54 AM 66.0 °F 63.0 °F 90% 29.96 in 10.0 mi NW 4.6 mph - 0.00 in   Overcast
3:54 AM 64.0 °F 62.1 °F 93% 29.96 in 10.0 mi NNW 5.8 mph - N/A   Mostly Cloudy
4:54 AM 64.9 °F 62.1 °F 90% 29.96 in 10.0 mi WNW 5.8 mph - 0.00 in   Mostly Cloudy
5:54 AM 64.9 °F 60.1 °F 84% 29.97 in 10.0 mi NW 10.4 mph - N/A   Partly Cloudy
6:54 AM 64.9 °F 60.1 °F 84% 29.99 in 10.0 mi NW 8.1 mph - N/A   Scattered Clouds
7:54 AM 69.1 °F 60.1 °F 73% 30.02 in 10.0 mi NW 10.4 mph - N/A   Mostly Cloudy
8:54 AM 71.1 °F 60.1 °F 68% 30.04 in 10.0 mi NNW 11.5 mph - N/A   Mostly Cloudy
9:54 AM 73.9 °F 59.0 °F 59% 30.05 in 10.0 mi NNW 16.1 mph 24.2 mph N/A   Scattered Clouds
10:54 AM 73.0 °F 57.9 °F 59% 30.06 in 10.0 mi NW 17.3 mph 21.9 mph N/A   Scattered Clouds
11:54 AM 75.0 °F 57.9 °F 55% 30.04 in 10.0 mi NNW 9.2 mph 19.6 mph N/A   Partly Cloudy
12:54 PM 75.0 °F 57.9 °F 55% 30.01 in 10.0 mi NW 16.1 mph 21.9 mph N/A   Clear
1:54 PM 73.9 °F 57.9 °F 57% 29.99 in 10.0 mi NW 16.1 mph - 0.01 in   Clear
2:54 PM 75.0 °F 60.1 °F 60% 29.98 in 10.0 mi NNW 11.5 mph 19.6 mph N/A   Scattered Clouds
3:54 PM 71.1 °F 63.0 °F 75% 29.99 in 10.0 mi NNW 17.3 mph 24.2 mph 0.00 in   Scattered Clouds
4:54 PM 69.1 °F 64.0 °F 84% 30.00 in 10.0 mi NNW 13.8 mph 25.3 mph N/A   Scattered Clouds
5:51 PM 68.0 °F 64.4 °F 88% 29.99 in 10.0 mi NNE 11.5 mph 27.6 mph 0.00 in   Mostly Cloudy
5:54 PM 66.9 °F 64.0 °F 90% 30.01 in 10.0 mi NNE 12.7 mph 27.6 mph 0.00 in   Mostly Cloudy
6:12 PM 66.2 °F 64.4 °F 94% 29.99 in 10.0 mi NNE 9.2 mph 20.7 mph N/A   Mostly Cloudy
6:50 PM 69.8 °F 62.6 °F 78% 30.00 in 10.0 mi North 10.4 mph 25.3 mph N/A   Overcast
6:54 PM 69.1 °F 62.1 °F 78% 30.02 in 10.0 mi North 13.8 mph 21.9 mph N/A   Overcast
7:54 PM 69.1 °F 61.0 °F 75% 30.02 in 10.0 mi NNE 13.8 mph 21.9 mph N/A   Scattered Clouds
8:07 PM 69.8 °F 60.8 °F 73% 30.02 in 10.0 mi North 12.7 mph 18.4 mph N/A   Mostly Cloudy
8:33 PM 69.8 °F 60.8 °F 73% 30.03 in 10.0 mi NNE 10.4 mph 19.6 mph N/A   Mostly Cloudy
8:54 PM 68.0 °F 61.0 °F 78% 30.04 in 10.0 mi NNE 10.4 mph 19.6 mph N/A   Scattered Clouds
9:54 PM 68.0 °F 60.1 °F 76% 30.04 in 10.0 mi North 12.7 mph 19.6 mph N/A   Scattered Clouds
10:54 PM 68.0 °F 57.9 °F 70% 30.05 in 10.0 mi NNE 8.1 mph 17.3 mph N/A   Overcast
11:54 PM 66.9 °F 57.0 °F 70% 30.04 in 10.0 mi NNE 8.1 mph - 0.01 in   Scattered Clouds